Regional Weather Roundup
Issued by NWS Upton, NY

Current Version | Previous Version | Text Only | Print | Product List | Glossary On
Versions: 1 2 3 4 5 6 7 8 9 10 11 12 13 14 15 16 17 18 19 20 21 22 23 24 25 26 27 28
000
ASUS41 KOKX 140408
RWROKX

REGIONAL WEATHER ROUNDUP
NATIONAL WEATHER SERVICE NEW YORK NY
1100 PM EST WED DEC 13 2017

NOTE: "FAIR" INDICATES FEW OR NO CLOUDS BELOW 12,000 FEET WITH NO
SIGNIFICANT WEATHER AND/OR OBSTRUCTIONS TO VISIBILITY.

NYZ071-072-176-178-NJZ106-104-140500-
NEW YORK CITY METRO AREA

CITY           SKY/WX    TMP DP  RH WIND       PRES   REMARKS
Central Park   CLOUDY    27   6  41 VRB5G17   29.68F WCI  22
Bronx Bot Gard   N/A     28   7  40 W14       29.69R WCI  17
Bronx Lehman C NOT AVBL
LaGuardia APRT CLOUDY    28   5  37 W15       29.67F WCI  16
Queens College NOT AVBL
Kennedy INTL   CLOUDY    28   7  41 W15       29.69S WCI  16
Breezy Point     N/A    N/A N/A N/A W9          N/A
Brooklyn Coll  NOT AVBL
Staten Island  NOT AVBL
Newark/Liberty CLOUDY    28   6  39 SW9       29.67F WCI  19
Teterboro      CLOUDY    27   7  42 W6        29.67S WCI  20
$$

NYZ177-179-078>081-140500-
LONG ISLAND NEW YORK

CITY           SKY/WX    TMP DP  RH WIND       PRES   REMARKS
Jones Beach      N/A    N/A N/A N/A W18         N/A
Wantagh        NOT AVBL
Matinecock PT    N/A    N/A N/A N/A W22G28      N/A
Farmingdale    CLOUDY    27   7  42 W10       29.66S WCI  17
MacArthur/ISP  CLOUDY    28   8  43 W8        29.64F WCI  20
Shirley        CLOUDY    28   9  44 W10       29.66S WCI  19
Mt Sinai Harb    N/A    N/A N/A N/A W7          N/A
Westhampton    CLOUDY    27   7  42 W13       29.67R WCI  16
East Hampton   MOCLDY    27  10  48 W9        29.64R WCI  17
Southold       NOT AVBL
Montauk          N/A     31  11  43 W17G30    29.64R WCI  19
$$

NYZ052-065-067-140500-
HUDSON VALLEY

CITY           SKY/WX    TMP DP  RH WIND       PRES   REMARKS
White Plains   CLOUDY    25   6  44 W7        29.62F WCI  17
Larchmont Harb   N/A    N/A N/A N/A SW13        N/A
Croton On Huds   N/A    N/A N/A N/A W10         N/A
Somers         NOT AVBL
Brewster       NOT AVBL
Newburgh       CLOUDY    21  10  63 W6        29.63R WCI  14
Montgomery     CLOUDY    23   8  52 W5        29.61F WCI  17
Otisville      NOT AVBL
Warwick        NOT AVBL
Suffern        NOT AVBL
Poughkeepsie   CLOUDY    23   5  46 W9        29.64R WCI  13
Albany         CLOUDY    18   5  57 SW8       29.61R WCI   8
$$

NJZ001-105-106-008-010-013-015-019>022-104-140500-
NEW JERSEY

CITY           SKY/WX    TMP DP  RH WIND       PRES   REMARKS
Newark/Liberty CLOUDY    28   6  39 SW9       29.67F WCI  19
Teterboro      CLOUDY    27   7  42 W6        29.67S WCI  20
Caldwell       CLOUDY    26   6  42 W3        29.67S
Somerville     CLOUDY    25  12  58 VRB6      29.68R WCI  18
Linden         CLOUDY    27   5  38 CALM      29.69R
Perth Amboy      N/A    N/A N/A N/A SW14        N/A
Sussex         CLOUDY    24   8  50 SW5       29.63S WCI  18
Andover        NOT AVBL
Trenton        LGT SNOW  24  20  84 SW7       29.69R FOG     WCI  16
Millville      SNOW      28  27  96 SW7       29.72R VSB 1/2 WCI  21
Atlantic City  SNOW      28  27  96 SW5       29.72F VSB 1/2 WCI  23
Wrightstown    LGT SNOW  24  21  87 W8        29.68R FOG     WCI  16
Toms River     LGT SNOW  25  20  81 SW7       29.71S WCI  17
Belmar         FLURRIES  26  12  55 SW12      29.70S WCI  16
$$

PAZ047>061-062-071-140500-
EASTERN PENNSYLVANIA

CITY           SKY/WX    TMP DP  RH WIND       PRES   REMARKS
Philadelphia   LGT SNOW  27  24  89 S8        29.71S VSB 3/4 WCI  19
Allentown      LGT SNOW  23  18  81 SW6       29.66R VSB 3/4 WCI  16
Scranton       LGT SNOW  19  16  88 CALM      29.59S VSB 3/4
$$

CTZ002-004>006-009-010-012-RIZ004-006-007-MAZ004-011-015-140500-
SOUTHERN NEW ENGLAND
 IN CT

CITY           SKY/WX    TMP DP  RH WIND       PRES   REMARKS
Bradley INTL   CLOUDY    19   6  57 SW3       29.62R
Hartford       CLOUDY    23   5  46 W6        29.64R WCI  16
Danbury        CLOUDY    24   6  46 VRB6      29.63R WCI  17
Wtrbury/Oxford CLOUDY    21   7  54 W9G17     29.61R WCI  11
Norwalk Harbor   N/A    N/A N/A N/A W13         N/A
Bridgeport     CLOUDY    27   6  41 W12       29.65R WCI  17
Meriden        PTCLDY    24   5  44 W8        29.65R WCI  15
New Haven      CLOUDY    27   7  42 W7        29.66R WCI  19
Chester        FAIR      23   3  42 W6G12     29.62R WCI  16
Groton         PTCLDY    26   4  38 W13G21    29.64R WCI  15
Wilimantic     CLOUDY    23   5  46 W6        29.62R WCI  16

 IN RI

CITY           SKY/WX    TMP DP  RH WIND       PRES   REMARKS
Providence     CLOUDY    24   6  46 W18       29.60R WCI  10
Block Island   PTCLDY    28  13  53 W16G31    29.62R WCI  16
Westerly       MOCLDY    26   4  38 W10G17    29.64R WCI  16
 IN MA

CITY           SKY/WX    TMP DP  RH WIND       PRES   REMARKS
Boston         CLOUDY    22   9  57 SW21G29   29.54R WCI   6
Worcester      CLOUDY    15   4  61 W10       29.49S WCI   2
Westfield      CLOUDY    19   7  59 W12       29.60R WCI   7
Provincetown   CLEAR     24  13  62 W22G32    29.54R WCI   9
Nantucket      CLOUDY    30  15  53 W22G33    29.58R WCI  17
$$

ANZ330-335-338-340-345-350-353-355-140500-
COASTAL MARINE OBSERVATIONS


STATION/POSITION TIME  SKY/WX   TEMP    WIND        PRES    VSBY  WAVE
                                AIR SEA DIR/SP/G                  HT/PER
                 (UTC)          (F)     (DEG/KT/KT) (MB)    (MI)  (FT/S)
NY HARB ENTRANCE 0250            31 52  280/ 21/ 25 1004.3          4/ 4
20 S FIRE ISLAND 0250            32 51  280/ 21/ 25 1004.5          7/ 6
GREAT SOUTH BAY  0315            29 45  280/ 14/ 21   N/A
HUDSON CANYON    0250            36 56  270/ 21/ 27 1005.0          9/ 7
KINGS POINT      0330            28 42  320/ 11/ 14 1005.1
EXECUTION ROCKS  0330            29     240/ 16/ 21   N/A
WESTERN LI SOUND NOT AVBL
CENTRAL LI SOUND 0300            30     280/ 21/ 27   N/A           6
ROBBINS REEF     0330            27     270/ 10/ 14 1004.9
$$


>>>>>>>>>>>>>>>>>>>>>>>>>>>> KEY <<<<<<<<<<<<<<<<<<<<<<<<<<<
>                                                          <
>     SKY/WX - Sky Condition/Present Weather               <
>     TMP    - Temperature in Fahrenheit                   <
>     DP     - Dew Point in Fahrenheit                     <
>     RH     - Relative Humidity in Percent                <
>     WIND   - Direction (from) and Speed in MPH           <
>     PRES   - Mean Sea Level Pressure (inches of Hg)      <
>     WCI    - Wind Chill Index                            <
>     VSB    - VISIBILITY IN MILES                         <
>     HX     - HEAT INDEX                                  <
>     TC     - TEMPERATURE IN CELSIUS                      <
>     VRB    - VARIABLE WIND DIRECTION                     <
>                                                          <
>>>>>>>>>>>>>>>>>>>>>>>>>>>> KEY <<<<<<<<<<<<<<<<<<<<<<<<<<<




USA.gov is the U.S. government's official web portal to all federal, state and local government web resources and services.